Location: Unspecified
(0.0000°N, 0.0000°E)
Time: 18:36:49
(UTC+00:00)

Vanguard 3 - Pass Details

Date: 02 October 2023
Orbit: 507 x 3241 km, 33.3° (Epoch: 29 November)

Event Time Altitude Azimuth Distance (km) Brightness Sun altitude
Rises 12:17:25 0° 227° (SW) 6,323 11.8 82.1°
Reaches altitude 10° 12:21:15 10° 224° (SW) 5,574 11.7 81.3°
Maximum altitude 12:39:40 67° 143° (SE) 3,420 11.6 76.9°
Drops below altitude 10° 12:58:09 10° 64° (ENE) 5,629 11.4 72.5°
Sets 13:02:01 0° 62° (ENE) 6,389 11.5 71.5°
